SQS320 WAFN-WAAA

Flight info

Callsign SQS320
Flight time 1h 16m
Altitude 12000
Route MAK
Aircraft C208/L-SDFGR/C

Departure

Time 2026-04-22 13:11
Airport Seko Airport (WAFN)

Arrival

Time 2026-04-22 14:28
Airport Sultan Hasanuddin International Airport (WAAA)
Time Latitude Longitude Altitude Speed Heading
2026-04-22 13:00 -2.27225 119.89383 3579 ft 0 kts 185°
2026-04-22 13:04 -2.27226 119.89383 3579 ft 0 kts 185°
2026-04-22 13:07 -2.27219 119.89377 3579 ft 5 kts 18°
2026-04-22 13:07 -2.27183 119.89409 3574 ft 7 kts
2026-04-22 13:07 -2.27165 119.89410 3574 ft 2 kts
2026-04-22 13:07 -2.27164 119.89410 3579 ft 0 kts
2026-04-22 13:08 -2.27163 119.89410 3579 ft 0 kts
2026-04-22 13:08 -2.27164 119.89410 3579 ft 0 kts
2026-04-22 13:09 -2.27163 119.89410 3575 ft 1 kts
2026-04-22 13:09 -2.27127 119.89404 3573 ft 9 kts 311°
2026-04-22 13:09 -2.27113 119.89375 3578 ft 1 kts 43°
2026-04-22 13:09 -2.27113 119.89381 3573 ft 2 kts 107°
2026-04-22 13:10 -2.27114 119.89389 3578 ft 0 kts 90°
2026-04-22 13:10 -2.27114 119.89452 3579 ft 30 kts 91°
2026-04-22 13:10 -2.27115 119.89661 3576 ft 58 kts 90°
2026-04-22 13:10 -2.27107 119.90167 3605 ft 81 kts 86°
2026-04-22 13:11 -2.27056 119.90715 3756 ft 79 kts 82°
2026-04-22 13:11 -2.26950 119.91248 3872 ft 82 kts 73°
2026-04-22 13:11 -2.26776 119.91816 3970 ft 91 kts 70°
2026-04-22 13:11 -2.26549 119.92418 4172 ft 92 kts 69°
2026-04-22 13:12 -2.26109 119.93152 4454 ft 93 kts 41°
2026-04-22 13:12 -2.25740 119.93416 4538 ft 102 kts 28°
2026-04-22 13:12 -2.25060 119.93705 4730 ft 110 kts 14°
2026-04-22 13:12 -2.24302 119.93907 4939 ft 115 kts 16°
2026-04-22 13:13 -2.23520 119.94131 5151 ft 119 kts 16°
2026-04-22 13:13 -2.22704 119.94299 5352 ft 123 kts 352°
2026-04-22 13:13 -2.21912 119.94001 5567 ft 125 kts 339°
2026-04-22 13:13 -2.21098 119.93663 5777 ft 128 kts 339°
2026-04-22 13:14 -2.20273 119.93307 5984 ft 130 kts 339°
2026-04-22 13:14 -2.19538 119.92787 6177 ft 135 kts 299°
2026-04-22 13:14 -2.19534 119.91878 6376 ft 135 kts 250°
2026-04-22 13:14 -2.20002 119.91090 6569 ft 133 kts 211°
2026-04-22 13:15 -2.20872 119.90842 6782 ft 130 kts 189°
2026-04-22 13:15 -2.21759 119.90656 6988 ft 130 kts 189°
2026-04-22 13:15 -2.22599 119.90317 7190 ft 133 kts 213°
2026-04-22 13:15 -2.23418 119.89968 7385 ft 130 kts 186°
2026-04-22 13:16 -2.24315 119.89855 7590 ft 130 kts 186°
2026-04-22 13:16 -2.25216 119.89735 7782 ft 131 kts 185°
2026-04-22 13:16 -2.26119 119.89624 7994 ft 131 kts 185°
2026-04-22 13:16 -2.27023 119.89515 8194 ft 131 kts 185°
2026-04-22 13:17 -2.27928 119.89402 8392 ft 131 kts 185°
2026-04-22 13:17 -2.28835 119.89297 8588 ft 131 kts 185°
2026-04-22 13:17 -2.29735 119.89191 8790 ft 131 kts 185°
2026-04-22 13:17 -2.30631 119.89089 8985 ft 132 kts 185°
2026-04-22 13:18 -2.31542 119.88982 9186 ft 132 kts 185°
2026-04-22 13:18 -2.32457 119.88873 9391 ft 133 kts 185°
2026-04-22 13:18 -2.33375 119.88765 9589 ft 133 kts 185°
2026-04-22 13:18 -2.34295 119.88658 9783 ft 133 kts 185°
2026-04-22 13:19 -2.35221 119.88547 9987 ft 135 kts 185°
2026-04-22 13:19 -2.36150 119.88438 10187 ft 134 kts 184°
2026-04-22 13:19 -2.37077 119.88334 10389 ft 134 kts 184°
2026-04-22 13:19 -2.38003 119.88228 10583 ft 134 kts 184°
2026-04-22 13:20 -2.38928 119.88118 10780 ft 134 kts 184°
2026-04-22 13:20 -2.39837 119.88010 10978 ft 134 kts 184°
2026-04-22 13:20 -2.40766 119.87902 11178 ft 136 kts 184°
2026-04-22 13:20 -2.41704 119.87791 11378 ft 136 kts 184°
2026-04-22 13:21 -2.42647 119.87679 11580 ft 137 kts 183°
2026-04-22 13:21 -2.43598 119.87568 11781 ft 138 kts 183°
2026-04-22 13:21 -2.44546 119.87456 11974 ft 135 kts 183°
2026-04-22 13:21 -2.45481 119.87347 12176 ft 135 kts 183°
2026-04-22 13:22 -2.46416 119.87235 12370 ft 136 kts 183°
2026-04-22 13:22 -2.47348 119.87126 12528 ft 141 kts 183°
2026-04-22 13:22 -2.48371 119.87003 12540 ft 154 kts 184°
2026-04-22 13:22 -2.49474 119.86865 12537 ft 165 kts 184°
2026-04-22 13:23 -2.50624 119.86720 12535 ft 166 kts 184°
2026-04-22 13:23 -2.51768 119.86585 12536 ft 165 kts 184°
2026-04-22 13:23 -2.52908 119.86456 12540 ft 167 kts 184°
2026-04-22 13:23 -2.54080 119.86315 12537 ft 171 kts 184°
2026-04-22 13:24 -2.55274 119.86170 12538 ft 174 kts 184°
2026-04-22 13:24 -2.56485 119.86025 12535 ft 176 kts 184°
2026-04-22 13:24 -2.57713 119.85881 12536 ft 178 kts 184°
2026-04-22 13:24 -2.58952 119.85734 12534 ft 180 kts 184°
2026-04-22 13:25 -2.60177 119.85588 12537 ft 181 kts 185°
2026-04-22 13:25 -2.61427 119.85437 12535 ft 181 kts 185°
2026-04-22 13:25 -2.62672 119.85292 12538 ft 179 kts 183°
2026-04-22 13:25 -2.63917 119.85154 12532 ft 180 kts 185°
2026-04-22 13:26 -2.65168 119.85000 12536 ft 183 kts 185°
2026-04-22 13:26 -2.66427 119.84848 12533 ft 182 kts 184°
2026-04-22 13:26 -2.67683 119.84698 12531 ft 181 kts 185°
2026-04-22 13:26 -2.68934 119.84553 12523 ft 181 kts 184°
2026-04-22 13:27 -2.70190 119.84411 12522 ft 182 kts 184°
2026-04-22 13:27 -2.71430 119.84265 12527 ft 182 kts 185°
2026-04-22 13:27 -2.72693 119.84114 12518 ft 183 kts 184°
2026-04-22 13:27 -2.73958 119.83966 12518 ft 183 kts 184°
2026-04-22 13:28 -2.75224 119.83816 12524 ft 184 kts 185°
2026-04-22 13:28 -2.76487 119.83663 12522 ft 182 kts 184°
2026-04-22 13:28 -2.77748 119.83539 12524 ft 182 kts 181°
2026-04-22 13:28 -2.79010 119.83411 12527 ft 182 kts 184°
2026-04-22 13:29 -2.80271 119.83259 12527 ft 183 kts 184°
2026-04-22 13:29 -2.81540 119.83104 12529 ft 184 kts 184°
2026-04-22 13:29 -2.82795 119.82954 12530 ft 184 kts 183°
2026-04-22 13:29 -2.84068 119.82808 12531 ft 184 kts 184°
2026-04-22 13:30 -2.85338 119.82660 12535 ft 184 kts 183°
2026-04-22 13:30 -2.86616 119.82508 12526 ft 184 kts 184°
2026-04-22 13:30 -2.87888 119.82356 12536 ft 184 kts 183°
2026-04-22 13:30 -2.89163 119.82208 12538 ft 185 kts 184°
2026-04-22 13:31 -2.90436 119.82059 12529 ft 183 kts 183°
2026-04-22 13:31 -2.91704 119.81913 12532 ft 184 kts 184°
2026-04-22 13:31 -2.92973 119.81758 12524 ft 184 kts 184°
2026-04-22 13:31 -2.94235 119.81609 12529 ft 182 kts 184°
2026-04-22 13:32 -2.95472 119.81464 12522 ft 180 kts 183°
2026-04-22 13:32 -2.96720 119.81317 12518 ft 180 kts 184°
2026-04-22 13:32 -2.97968 119.81168 12519 ft 180 kts 184°
2026-04-22 13:32 -2.99214 119.81026 12524 ft 181 kts 183°
2026-04-22 13:33 -3.00465 119.80882 12524 ft 181 kts 183°
2026-04-22 13:33 -3.01718 119.80734 12523 ft 182 kts 184°
2026-04-22 13:33 -3.02976 119.80584 12523 ft 182 kts 183°
2026-04-22 13:33 -3.04228 119.80435 12525 ft 182 kts 183°
2026-04-22 13:34 -3.05488 119.80288 12530 ft 183 kts 184°
2026-04-22 13:34 -3.06736 119.80140 12532 ft 183 kts 184°
2026-04-22 13:34 -3.08001 119.79990 12533 ft 183 kts 183°
2026-04-22 13:34 -3.09266 119.79842 12540 ft 183 kts 184°
2026-04-22 13:35 -3.10533 119.79693 12537 ft 183 kts 184°
2026-04-22 13:35 -3.11793 119.79543 12530 ft 183 kts 183°
2026-04-22 13:35 -3.13055 119.79399 12528 ft 182 kts 183°
2026-04-22 13:35 -3.14308 119.79246 12529 ft 181 kts 184°
2026-04-22 13:36 -3.15562 119.79102 12527 ft 182 kts 184°
2026-04-22 13:36 -3.16812 119.78955 12538 ft 181 kts 184°
2026-04-22 13:36 -3.18073 119.78803 12523 ft 183 kts 184°
2026-04-22 13:36 -3.19323 119.78658 12526 ft 184 kts 184°
2026-04-22 13:37 -3.20597 119.78507 12531 ft 185 kts 184°
2026-04-22 13:37 -3.21877 119.78355 12529 ft 186 kts 184°
2026-04-22 13:37 -3.23154 119.78205 12528 ft 184 kts 183°
2026-04-22 13:37 -3.24424 119.78059 12525 ft 184 kts 183°
2026-04-22 13:38 -3.25698 119.77908 12524 ft 185 kts 184°
2026-04-22 13:38 -3.28254 119.77602 12529 ft 186 kts 184°
2026-04-22 13:38 -3.29535 119.77451 12533 ft 185 kts 184°
2026-04-22 13:39 -3.30811 119.77301 12535 ft 185 kts 184°
2026-04-22 13:39 -3.32071 119.77152 12533 ft 185 kts 183°
2026-04-22 13:39 -3.33350 119.77002 12534 ft 185 kts 183°
2026-04-22 13:39 -3.34630 119.76848 12530 ft 186 kts 185°
2026-04-22 13:40 -3.35912 119.76679 12530 ft 186 kts 184°
2026-04-22 13:40 -3.37195 119.76528 12521 ft 185 kts 184°
2026-04-22 13:40 -3.38473 119.76381 12520 ft 185 kts 184°
2026-04-22 13:40 -3.39749 119.76231 12520 ft 184 kts 184°
2026-04-22 13:41 -3.41016 119.76087 12521 ft 182 kts 183°
2026-04-22 13:41 -3.42277 119.75965 12526 ft 183 kts 184°
2026-04-22 13:41 -3.43553 119.75771 12524 ft 187 kts 186°
2026-04-22 13:41 -3.44824 119.75615 12537 ft 182 kts 184°
2026-04-22 13:42 -3.46115 119.75416 12351 ft 193 kts 187°
2026-04-22 13:42 -3.47400 119.75300 12491 ft 184 kts 180°
2026-04-22 13:42 -3.48672 119.75203 12533 ft 184 kts 183°
2026-04-22 13:42 -3.49954 119.75049 12485 ft 189 kts 185°
2026-04-22 13:43 -3.51277 119.74874 12349 ft 194 kts 185°
2026-04-22 13:43 -3.52595 119.74693 12259 ft 189 kts 186°
2026-04-22 13:43 -3.53908 119.74548 12065 ft 191 kts 181°
2026-04-22 13:43 -3.55252 119.74425 11873 ft 195 kts 183°
2026-04-22 13:44 -3.56611 119.74256 11695 ft 198 kts 185°
2026-04-22 13:44 -3.57996 119.74070 11528 ft 203 kts 185°
2026-04-22 13:44 -3.59403 119.73910 11350 ft 204 kts 184°
2026-04-22 13:44 -3.60806 119.73751 11183 ft 204 kts 185°
2026-04-22 13:45 -3.62188 119.73588 11011 ft 202 kts 185°
2026-04-22 13:45 -3.63599 119.73416 10830 ft 203 kts 185°
2026-04-22 13:45 -3.64982 119.73255 10652 ft 202 kts 185°
2026-04-22 13:45 -3.66377 119.73090 10485 ft 201 kts 186°
2026-04-22 13:46 -3.67767 119.72924 10313 ft 201 kts 186°
2026-04-22 13:46 -3.69154 119.72762 10132 ft 201 kts 186°
2026-04-22 13:46 -3.70539 119.72600 9956 ft 200 kts 186°
2026-04-22 13:46 -3.71915 119.72436 9781 ft 199 kts 187°
2026-04-22 13:47 -3.73294 119.72272 9607 ft 199 kts 187°
2026-04-22 13:47 -3.74665 119.72112 9431 ft 198 kts 186°
2026-04-22 13:47 -3.76032 119.71951 9256 ft 197 kts 187°
2026-04-22 13:47 -3.77392 119.71792 9080 ft 196 kts 186°
2026-04-22 13:48 -3.78730 119.71650 8906 ft 196 kts 186°
2026-04-22 13:48 -3.80088 119.71494 8729 ft 196 kts 187°
2026-04-22 13:48 -3.81439 119.71333 8548 ft 195 kts 187°
2026-04-22 13:48 -3.82785 119.71171 8381 ft 195 kts 187°
2026-04-22 13:49 -3.84130 119.71012 8206 ft 194 kts 187°
2026-04-22 13:49 -3.85472 119.70856 8028 ft 194 kts 186°
2026-04-22 13:49 -3.86800 119.70698 7948 ft 189 kts 187°
2026-04-22 13:49 -3.88081 119.70548 7943 ft 183 kts 187°
2026-04-22 13:50 -3.89334 119.70414 7938 ft 180 kts 185°
2026-04-22 13:50 -3.90566 119.70300 7936 ft 176 kts 185°
2026-04-22 13:50 -3.91778 119.70188 7935 ft 174 kts 186°
2026-04-22 13:50 -3.92818 119.69687 7939 ft 171 kts 228°
2026-04-22 13:51 -3.93741 119.68970 7938 ft 170 kts 195°
2026-04-22 13:51 -3.94884 119.69127 7942 ft 169 kts 155°
2026-04-22 13:51 -3.96000 119.69479 7944 ft 168 kts 171°
2026-04-22 13:51 -3.97164 119.69442 7945 ft 168 kts 188°
2026-04-22 13:52 -3.98310 119.69194 7948 ft 169 kts 197°
2026-04-22 13:52 -3.99432 119.68830 7949 ft 169 kts 198°
2026-04-22 13:52 -4.00544 119.68456 7949 ft 167 kts 199°
2026-04-22 13:52 -4.01646 119.68089 7949 ft 169 kts 199°
2026-04-22 13:53 -4.02763 119.67713 7953 ft 169 kts 198°
2026-04-22 13:53 -4.03868 119.67350 7951 ft 171 kts 199°
2026-04-22 13:53 -4.05003 119.66971 7951 ft 172 kts 198°
2026-04-22 13:53 -4.06140 119.66594 7950 ft 172 kts 198°
2026-04-22 13:54 -4.07262 119.66196 7951 ft 171 kts 200°
2026-04-22 13:54 -4.08375 119.65784 7952 ft 170 kts 200°
2026-04-22 13:54 -4.09485 119.65372 7953 ft 170 kts 200°
2026-04-22 13:54 -4.10594 119.64961 7952 ft 170 kts 200°
2026-04-22 13:55 -4.11701 119.64551 7951 ft 170 kts 200°
2026-04-22 13:55 -4.12810 119.64140 7948 ft 170 kts 200°
2026-04-22 13:55 -4.13918 119.63729 7947 ft 170 kts 200°
2026-04-22 13:55 -4.15029 119.63317 7946 ft 170 kts 200°
2026-04-22 13:56 -4.16125 119.62911 7946 ft 170 kts 200°
2026-04-22 13:56 -4.17233 119.62501 7946 ft 170 kts 200°
2026-04-22 13:56 -4.18345 119.62089 7948 ft 170 kts 200°
2026-04-22 13:56 -4.19452 119.61677 7950 ft 170 kts 200°
2026-04-22 13:57 -4.20560 119.61265 7951 ft 170 kts 200°
2026-04-22 13:57 -4.21669 119.60854 7953 ft 170 kts 200°
2026-04-22 13:57 -4.22779 119.60440 7953 ft 171 kts 200°
2026-04-22 13:57 -4.23892 119.60028 7953 ft 170 kts 200°
2026-04-22 13:58 -4.25003 119.59615 7951 ft 169 kts 200°
2026-04-22 13:58 -4.26109 119.59202 7951 ft 170 kts 200°
2026-04-22 13:58 -4.27223 119.58789 7953 ft 172 kts 200°
2026-04-22 13:58 -4.28337 119.58370 7953 ft 170 kts 200°
2026-04-22 13:59 -4.29435 119.57994 7950 ft 169 kts 194°
2026-04-22 13:59 -4.30579 119.57755 7948 ft 169 kts 191°
2026-04-22 13:59 -4.31738 119.57526 7947 ft 168 kts 191°
2026-04-22 13:59 -4.32886 119.57294 7947 ft 169 kts 191°
2026-04-22 14:00 -4.34036 119.57064 7947 ft 168 kts 191°
2026-04-22 14:00 -4.35185 119.56834 7947 ft 169 kts 191°
2026-04-22 14:00 -4.36335 119.56603 7947 ft 168 kts 191°
2026-04-22 14:00 -4.37490 119.56369 7946 ft 169 kts 191°
2026-04-22 14:01 -4.38644 119.56135 7946 ft 170 kts 191°
2026-04-22 14:01 -4.39803 119.55899 7946 ft 170 kts 191°
2026-04-22 14:01 -4.40963 119.55663 7946 ft 170 kts 191°
2026-04-22 14:01 -4.42124 119.55426 7947 ft 170 kts 191°
2026-04-22 14:02 -4.43287 119.55189 7947 ft 170 kts 191°
2026-04-22 14:02 -4.44429 119.54955 7948 ft 170 kts 191°
2026-04-22 14:02 -4.45589 119.54719 7948 ft 170 kts 191°
2026-04-22 14:02 -4.46746 119.54483 7948 ft 169 kts 191°
2026-04-22 14:03 -4.47902 119.54247 7948 ft 170 kts 191°
2026-04-22 14:03 -4.49059 119.54010 7950 ft 170 kts 191°
2026-04-22 14:03 -4.50224 119.53769 7952 ft 171 kts 191°
2026-04-22 14:03 -4.51389 119.53530 7951 ft 170 kts 191°
2026-04-22 14:04 -4.52551 119.53296 7953 ft 171 kts 191°
2026-04-22 14:04 -4.53720 119.53058 7953 ft 172 kts 191°
2026-04-22 14:04 -4.54891 119.52818 7954 ft 171 kts 192°
2026-04-22 14:04 -4.56056 119.52579 7953 ft 171 kts 191°
2026-04-22 14:05 -4.57222 119.52339 7953 ft 171 kts 191°
2026-04-22 14:05 -4.58388 119.52099 7953 ft 171 kts 191°
2026-04-22 14:05 -4.60707 119.51622 7950 ft 171 kts 191°
2026-04-22 14:06 -4.61898 119.51377 7806 ft 178 kts 191°
2026-04-22 14:06 -4.63126 119.51124 7660 ft 182 kts 191°
2026-04-22 14:06 -4.64373 119.50866 7506 ft 184 kts 191°
2026-04-22 14:06 -4.65628 119.50605 7371 ft 185 kts 191°
2026-04-22 14:07 -4.66894 119.50344 7223 ft 186 kts 191°
2026-04-22 14:07 -4.68162 119.50083 7074 ft 186 kts 191°
2026-04-22 14:07 -4.69429 119.49821 6927 ft 186 kts 191°
2026-04-22 14:07 -4.70698 119.49552 6778 ft 186 kts 191°
2026-04-22 14:08 -4.71965 119.49283 6627 ft 186 kts 191°
2026-04-22 14:08 -4.73211 119.49018 6481 ft 186 kts 191°
2026-04-22 14:08 -4.74474 119.48749 6330 ft 185 kts 191°
2026-04-22 14:08 -4.75739 119.48482 6183 ft 186 kts 191°
2026-04-22 14:09 -4.77006 119.48213 6033 ft 186 kts 191°
2026-04-22 14:09 -4.78265 119.47954 5962 ft 180 kts 191°
2026-04-22 14:09 -4.79472 119.47701 5954 ft 176 kts 191°
2026-04-22 14:09 -4.80664 119.47446 5946 ft 177 kts 191°
2026-04-22 14:10 -4.81864 119.47191 5948 ft 175 kts 191°
2026-04-22 14:10 -4.83046 119.46942 5948 ft 171 kts 191°
2026-04-22 14:10 -4.84212 119.46697 5945 ft 171 kts 192°
2026-04-22 14:10 -4.85375 119.46447 5946 ft 171 kts 191°
2026-04-22 14:11 -4.86517 119.46204 5944 ft 170 kts 191°
2026-04-22 14:11 -4.87671 119.45958 5945 ft 169 kts 191°
2026-04-22 14:11 -4.88823 119.45711 5947 ft 169 kts 191°
2026-04-22 14:11 -4.89972 119.45466 5943 ft 169 kts 191°
2026-04-22 14:12 -4.91124 119.45220 5944 ft 169 kts 191°
2026-04-22 14:12 -4.92272 119.44975 5943 ft 169 kts 192°
2026-04-22 14:12 -4.93389 119.44592 5884 ft 173 kts 204°
2026-04-22 14:12 -4.94493 119.44074 5765 ft 177 kts 205°
2026-04-22 14:13 -4.95617 119.43544 5645 ft 180 kts 205°
2026-04-22 14:13 -4.96755 119.43006 5524 ft 181 kts 204°
2026-04-22 14:13 -4.97900 119.42467 5401 ft 182 kts 204°
2026-04-22 14:13 -4.99046 119.41926 5278 ft 182 kts 204°
2026-04-22 14:14 -5.00176 119.41393 5154 ft 182 kts 204°
2026-04-22 14:14 -5.01317 119.40851 5031 ft 181 kts 204°
2026-04-22 14:14 -5.02457 119.40311 4904 ft 181 kts 204°
2026-04-22 14:14 -5.03595 119.39767 4781 ft 181 kts 204°
2026-04-22 14:15 -5.04729 119.39226 4620 ft 181 kts 204°
2026-04-22 14:15 -5.05884 119.38672 4374 ft 186 kts 204°
2026-04-22 14:15 -5.07057 119.38107 4138 ft 187 kts 204°
2026-04-22 14:15 -5.08210 119.37552 3882 ft 182 kts 204°
2026-04-22 14:16 -5.09358 119.36992 3628 ft 184 kts 204°
2026-04-22 14:16 -5.10510 119.36431 3386 ft 185 kts 204°
2026-04-22 14:16 -5.11664 119.35868 3136 ft 184 kts 204°
2026-04-22 14:16 -5.12806 119.35305 2956 ft 180 kts 204°
2026-04-22 14:17 -5.13889 119.34771 2957 ft 173 kts 204°
2026-04-22 14:17 -5.14957 119.34241 2947 ft 169 kts 204°
2026-04-22 14:17 -5.16006 119.33721 2945 ft 167 kts 204°
2026-04-22 14:17 -5.17043 119.33204 2945 ft 166 kts 205°
2026-04-22 14:18 -5.18071 119.32689 2949 ft 165 kts 204°
2026-04-22 14:18 -5.19106 119.32170 2952 ft 166 kts 204°
2026-04-22 14:18 -5.20149 119.31651 2950 ft 167 kts 204°
2026-04-22 14:18 -5.21238 119.31302 2940 ft 164 kts 176°
2026-04-22 14:19 -5.22310 119.31652 2944 ft 161 kts 154°
2026-04-22 14:19 -5.23326 119.32119 2943 ft 160 kts 154°
2026-04-22 14:19 -5.24344 119.32579 2952 ft 160 kts 154°
2026-04-22 14:19 -5.25362 119.33039 2951 ft 160 kts 154°
2026-04-22 14:20 -5.27285 119.34067 2949 ft 159 kts 128°
2026-04-22 14:20 -5.27602 119.35109 2947 ft 159 kts 95°
2026-04-22 14:20 -5.27670 119.36206 2951 ft 153 kts 94°
2026-04-22 14:21 -5.27789 119.38308 2940 ft 149 kts 87°
2026-04-22 14:21 -5.27416 119.39294 2848 ft 155 kts 63°
2026-04-22 14:22 -5.26378 119.41220 2660 ft 158 kts 63°
2026-04-22 14:22 -5.25859 119.42190 2558 ft 158 kts 63°
2026-04-22 14:22 -5.24828 119.44106 2360 ft 158 kts 63°
2026-04-22 14:23 -5.24307 119.45079 2260 ft 158 kts 63°
2026-04-22 14:23 -5.23609 119.45935 2157 ft 160 kts 42°
2026-04-22 14:23 -5.22685 119.46560 2058 ft 160 kts 34°
2026-04-22 14:23 -5.21743 119.47138 1963 ft 158 kts 33°
2026-04-22 14:24 -5.20818 119.47689 1957 ft 152 kts 31°
2026-04-22 14:24 -5.19914 119.48212 1953 ft 149 kts 30°
2026-04-22 14:24 -5.19025 119.48724 1946 ft 143 kts 31°
2026-04-22 14:24 -5.18221 119.49193 1954 ft 124 kts 30°
2026-04-22 14:25 -5.17523 119.49594 1908 ft 115 kts 31°
2026-04-22 14:25 -5.16816 119.50003 1770 ft 117 kts 30°
2026-04-22 14:25 -5.16078 119.50435 1613 ft 131 kts 29°
2026-04-22 14:25 -5.15257 119.50899 1434 ft 137 kts 30°
2026-04-22 14:26 -5.14427 119.51392 1245 ft 140 kts 31°
2026-04-22 14:26 -5.13570 119.51884 1056 ft 142 kts 30°
2026-04-22 14:26 -5.12719 119.52382 857 ft 139 kts 29°
2026-04-22 14:26 -5.11973 119.52812 698 ft 112 kts 30°
2026-04-22 14:27 -5.11335 119.53180 553 ft 102 kts 29°
2026-04-22 14:27 -5.10744 119.53532 407 ft 97 kts 30°
2026-04-22 14:27 -5.10171 119.53871 271 ft 93 kts 28°
2026-04-22 14:27 -5.09618 119.54184 164 ft 89 kts 27°
2026-04-22 14:28 -5.09096 119.54480 58 ft 84 kts 28°
2026-04-22 14:28 -5.08646 119.54740 41 ft 55 kts 31°
2026-04-22 14:28 -5.08554 119.54737 39 ft 10 kts 264°
2026-04-22 14:28 -5.08600 119.54648 40 ft 17 kts 240°
2026-04-22 14:29 -5.08616 119.54613 40 ft 3 kts 265°
2026-04-22 14:29 -5.08601 119.54580 40 ft 7 kts 303°
2026-04-22 14:29 -5.08559 119.54508 40 ft 16 kts 298°
2026-04-22 14:29 -5.08498 119.54410 40 ft 10 kts 327°
2026-04-22 14:30 -5.08452 119.54416 40 ft 9 kts 28°
2026-04-22 14:30 -5.08381 119.54458 40 ft 10 kts 30°
2026-04-22 14:30 -5.08311 119.54498 40 ft 11 kts 30°
2026-04-22 14:30 -5.08265 119.54525 40 ft 10 kts 30°
2026-04-22 14:31 -5.08209 119.54558 40 ft 6 kts 30°
2026-04-22 14:31 -5.08184 119.54537 40 ft 2 kts 300°
2026-04-22 14:31 -5.08176 119.54521 40 ft 4 kts 299°
2026-04-22 14:31 -5.08167 119.54506 40 ft 4 kts 300°
2026-04-22 14:32 -5.08165 119.54502 40 ft 0 kts 300°